[[{"header":{"parameterUnit":"m.s-1","parameterCategory":1,"la1":30.2991,"la2":30.254,"lo1":-89.0895,"lo2":-89.0444,"dy":0.0017,"dx":0.0017,"nx":28,"ny":28,"refTime":"2023-10-12T21:00:00:Z","depth":0,"parameterNumber":2,"parameterNumberName":"U-component_of_WINDS"},"data":[0,0,0,0,0,0,0,0,0,0,0,0,0,0,0,0,0,0,0,0,0,0,0,0,0,0,0,0,0,0,0,0,0,0,0,0,0,0,0,0,0,0,0,0,0,0,0,0,0,0,0,0,0,0,0,0,0,0,2.0538,2.0539,0,2.0603,2.0603,2.0604,2.059,2.0589,2.0587,2.0586,2.065,2.0652,2.0655,0,0,0,0,0,0,0,0,0,0,0,0,0,2.0398,2.0401,2.0538,2.0539,2.054,2.0603,2.0603,2.0604,2.059,2.0589,2.0587,2.0586,2.0649,2.0652,2.0655,0,0,0,0,0,0,0,0,0,0,0,0,0,2.0461,2.0402,2.0538,2.054,2.0541,2.0602,2.0604,2.0605,2.059,2.0589,2.0587,2.0585,2.0648,2.0652,2.0656,2.0718,0,0,2.0669,2.0671,0,0,0,0,0,0,0,0,2.0457,2.0466,2.0539,2.054,2.0541,2.0586,2.0577,2.0643,2.0591,2.0572,2.0586,2.0584,2.063,2.0636,2.0652,2.0721,2.0724,2.0669,2.0672,2.0674,2.0675,0,0,0,0,0,0,0,2.0453,2.0463,2.0564,2.054,2.0541,2.0537,2.0544,2.059,2.061,2.0573,2.0572,2.058,2.063,2.0647,2.0653,2.0725,2.0669,2.0673,2.0675,2.0677,2.0846,2.0848,0,0,0,0,0,0,2.0448,2.0459,2.0561,2.0565,2.0494,2.0541,2.0548,2.0574,2.061,2.0613,2.0582,2.0579,2.0641,2.0648,2.0655,2.0728,2.0674,2.0678,2.068,2.0844,2.0846,2.0849,0,0,0,0,0,0,2.0445,2.0457,2.0559,2.0512,2.0525,2.0545,2.0574,2.0576,2.0593,2.0616,2.0619,2.0596,2.064,2.0649,2.0702,2.073,2.0679,2.0683,2.0842,2.0845,2.0847,2.0876,0,0,0,0,0,0,2.0441,2.0456,2.0481,2.0513,2.0527,2.0606,2.0575,2.0579,2.0601,2.0598,2.063,2.0634,2.0639,2.0696,2.0706,2.0735,2.0687,2.0839,2.0843,2.0847,2.0873,2.088,2.0886,0,0,0,0,0,2.0436,2.0487,2.0483,2.0495,2.0559,2.0608,2.0616,2.0622,2.0603,2.0627,2.0642,2.0633,2.0726,2.0702,2.0713,2.0744,2.0837,2.0842,2.0846,2.087,2.0878,2.0885,0,0,0,0,0,0,2.0457,2.0491,2.0487,2.0549,2.0576,2.0605,2.0636,2.0631,2.0663,2.0659,2.0665,2.0672,2.0726,2.074,2.0712,2.0804,2.0779,2.0786,2.0793,2.0801,2.0807,2.0802,2.069,0,0,0,0,0,2.0469,2.0507,2.0534,2.0586,2.06,2.0616,2.0637,2.064,2.0667,2.0678,2.0697,2.0723,2.0757,2.078,2.0814,2.0875,2.0881,2.0902,2.0908,2.0913,2.0919,2.095,2.0959,2.0863,2.0863,2.0863,0,0,2.0494,2.0517,2.054,2.0591,2.0612,2.0649,2.0625,2.0667,2.0694,2.0684,2.0735,2.0749,2.0779,2.0836,2.0861,2.0849,2.0946,2.0919,2.0923,2.0925,2.0955,2.0964,2.0972,2.0866,2.0865,2.0865,0,0,2.0557,2.058,2.0625,2.0646,2.0678,2.0688,2.0699,2.073,2.0739,2.079,2.0783,2.0815,2.0876,2.0896,2.0915,2.0985,2.0977,2.0996,2.1029,2.1059,2.1067,2.1073,2.1096,2.1104,2.1002,2.1002,2.1002,0,2.0584,2.0641,2.0648,2.069,2.0711,2.0705,2.0749,2.077,2.0811,2.0825,2.0811,2.0886,2.0905,2.0966,2.0983,2.0999,2.1009,2.0992,2.1065,2.1072,2.1078,2.11,2.1109,2.1004,2.1004,2.1003,2.1003,0,2.067,2.071,2.0743,2.0783,2.0808,2.0851,2.0863,2.0888,2.0888,2.0899,2.095,2.0973,2.101,2.1025,2.1026,2.1085,2.1076,2.1064,2.1038,2.1089,2.1109,2.1118,2.1006,2.1006,2.1005,2.1005,0,0,2.0748,2.0792,2.0803,2.082,2.0855,2.0885,2.0927,2.0964,2.0984,2.1012,2.1046,2.1097,2.1085,2.1106,2.1109,2.1136,2.1187,2.112,2.112,2.1129,2.1251,2.1258,2.1268,2.1183,2.1184,2.1186,2.1247,0,2.0813,2.0888,2.0895,2.0961,2.0996,2.099,2.1026,2.1051,2.1062,2.1093,2.1105,2.114,2.1123,2.1135,2.1162,2.1175,2.1211,2.1171,2.1212,2.1213,2.1202,2.1279,2.1287,2.1344,2.1256,2.1257,2.1258,0,2.0899,2.093,2.0999,2.1027,2.1043,2.1075,2.1108,2.1139,2.1165,2.1171,2.1194,2.1193,2.1234,2.1208,2.1264,2.1236,2.1253,2.1262,2.1265,2.1267,2.1237,2.1281,2.1363,2.1371,2.1271,2.127,2.1269,0,2.0946,2.1005,2.1054,2.1069,2.1104,2.1126,2.1141,2.1166,2.1187,2.1216,2.123,2.1263,2.1281,2.1306,2.1313,2.1294,2.1368,2.1343,2.1372,2.1372,2.1386,2.1385,2.147,2.1401,2.1401,2.1401,2.1401,0,2.1016,2.1058,2.1075,2.1104,2.1151,2.1158,2.1203,2.1217,2.1239,2.127,2.1268,2.1297,2.1306,2.1336,2.1342,2.1385,2.1394,2.1399,2.1399,2.1398,2.1397,2.1407,2.1403,2.1403,2.1403,2.1402,2.1402,0,2.1075,2.1088,2.114,2.1169,2.1177,2.121,2.1233,2.1261,2.1272,2.1311,2.132,2.1337,2.1372,2.1382,2.1425,2.1429,2.1479,2.1477,2.147,2.1469,2.1497,2.1493,2.159,2.1602,2.1528,2.1528,2.1529,0,2.1118,2.115,2.1182,2.1203,2.1219,2.1253,2.1275,2.1283,2.1305,2.1337,2.1361,2.1396,2.1424,2.148,2.1494,2.1526,2.1524,2.1556,2.1528,2.1525,2.1521,2.1518,2.152,2.156,2.1561,2.1561,2.1562,0,2.1192,2.1197,2.1228,2.1262,2.1288,2.1314,2.134,2.1357,2.1369,2.1393,2.1429,2.1451,2.1494,2.1528,2.156,2.1574,2.1569,2.1571,2.1578,2.1576,2.1569,2.1571,2.1481,2.1568,2.1567,2.1567,2.1566,2.1566,2.1243,2.127,2.1297,2.1331,2.1351,2.1375,2.1402,2.1416,2.1447,2.1482,2.1485,2.1524,2.1548,2.1591,2.1607,2.1636,2.1626,2.1638,2.1641,2.1643,2.1644,2.1567,2.1642,2.1642,2.1641,2.1641,2.1641,0,2.1314,2.1331,2.1363,2.1399,2.1425,2.142,2.1448,2.147,2.1504,2.1528,2.1555,2.1595,2.1628,2.1646,2.1678,2.1697,2.1696,2.1705,2.1702,2.1705,2.1652,2.1641,2.1706,2.1706,2.1706,2.1706,2.1706,2.1706,2.1355,2.14,2.1408,2.1462,2.1478,2.1516,2.1532,2.1553,2.1572,2.1617,2.1644,2.1656,2.1677,2.171,2.1739,2.1743,2.1754,2.1764,2.1767,2.1716,2.1709,2.1703,2.1692,2.1767,2.1767,2.1817,2.1818,2.1818]},{"header":{"parameterUnit":"m.s-1","parameterCategory":1,"la1":30.2991,"la2":30.254,"lo1":-89.0895,"lo2":-89.0444,"dy":0.0017,"dx":0.0017,"nx":28,"ny":28,"refTime":"2023-10-12T21:00:00:Z","depth":0,"parameterNumber":3,"parameterNumberName":"V-component_of_WINDS"},"data":[0,0,0,0,0,0,0,0,0,0,0,0,0,0,0,0,0,0,0,0,0,0,0,0,0,0,0,0,0,0,0,0,0,0,0,0,0,0,0,0,0,0,0,0,0,0,0,0,0,0,0,0,0,0,0,0,0,0,1.209,1.209,0,1.2044,1.2043,1.2043,1.1987,1.1986,1.1985,1.1984,1.1936,1.1936,1.1936,0,0,0,0,0,0,0,0,0,0,0,0,0,1.2129,1.2129,1.209,1.209,1.2089,1.2044,1.2043,1.2043,1.1987,1.1986,1.1985,1.1984,1.1937,1.1936,1.1935,0,0,0,0,0,0,0,0,0,0,0,0,0,1.2101,1.2129,1.2091,1.2056,1.2052,1.2044,1.2043,1.2042,1.1987,1.1986,1.1984,1.1983,1.1937,1.1936,1.1935,1.1957,0,0,1.1933,1.1933,0,0,0,0,0,0,0,0,1.2102,1.2099,1.2062,1.2058,1.2054,1.202,1.2039,1.2014,1.1987,1.2012,1.1984,1.1982,1.1965,1.1962,1.1956,1.1955,1.1953,1.1933,1.1933,1.1933,1.1932,0,0,0,0,0,0,0,1.2105,1.2101,1.2072,1.2061,1.2057,1.2042,1.2037,1.2034,1.1996,1.201,1.2005,1.2001,1.1963,1.1957,1.1955,1.1953,1.1933,1.1933,1.1932,1.1932,1.1964,1.1966,0,0,0,0,0,0,1.2112,1.2103,1.2073,1.2071,1.2076,1.2043,1.2036,1.2032,1.1996,1.199,1.2002,1.1998,1.1959,1.1956,1.1953,1.1974,1.1933,1.1932,1.1932,1.1963,1.1965,1.1966,0,0,0,0,0,0,1.2113,1.211,1.2075,1.2086,1.208,1.2043,1.2039,1.2032,1.2026,1.199,1.1983,1.2003,1.1958,1.1954,1.1956,1.1972,1.1932,1.1931,1.1962,1.1964,1.1965,1.2019,0,0,0,0,0,0,1.2114,1.211,1.2119,1.2086,1.208,1.208,1.204,1.2032,1.2025,1.202,1.1989,1.1983,1.1956,1.1957,1.1955,1.197,1.1931,1.196,1.1963,1.1965,1.2016,1.2023,1.2029,0,0,0,0,0,1.2116,1.2137,1.212,1.2116,1.209,1.2081,1.2078,1.2046,1.2026,1.2034,1.2011,1.1984,1.1971,1.1958,1.1955,1.1971,1.1959,1.1962,1.1965,1.2013,1.2022,1.2029,0,0,0,0,0,0,1.2173,1.2132,1.2113,1.2124,1.2106,1.2072,1.2081,1.2056,1.2044,1.204,1.2002,1.1995,1.2002,1.1986,1.1973,1.1989,1.1961,1.1963,1.1999,1.2006,1.2013,1.2016,1.193,0,0,0,0,0,1.2187,1.2183,1.2148,1.2161,1.2153,1.2118,1.2114,1.2091,1.2071,1.2064,1.2041,1.2023,1.2014,1.2009,1.2,1.2013,1.2005,1.2022,1.2029,1.2034,1.2037,1.204,1.2047,1.1975,1.1975,1.1975,0,0,1.2215,1.2192,1.2193,1.2171,1.2155,1.2152,1.2113,1.2112,1.2108,1.2063,1.2064,1.2046,1.2023,1.2031,1.2033,1.2018,1.2054,1.2038,1.2042,1.2042,1.2044,1.2051,1.2057,1.1977,1.1977,1.1977,0,0,1.2265,1.2248,1.2256,1.2241,1.2216,1.2193,1.2195,1.2164,1.215,1.215,1.2115,1.2111,1.2097,1.2082,1.2072,1.2114,1.2088,1.2112,1.2145,1.2149,1.2155,1.216,1.2173,1.2179,1.2114,1.2115,1.2115,0,1.2304,1.2298,1.2264,1.2264,1.2255,1.2213,1.222,1.2207,1.2181,1.2175,1.2159,1.2139,1.2121,1.2123,1.2133,1.2127,1.2127,1.2115,1.2157,1.2162,1.2165,1.2178,1.2183,1.2118,1.2117,1.2117,1.2117,0,1.2346,1.2342,1.2351,1.2326,1.2318,1.2322,1.2288,1.2283,1.2261,1.2239,1.2238,1.2214,1.2198,1.2197,1.2175,1.2195,1.2186,1.2164,1.2135,1.2176,1.2187,1.2191,1.2122,1.2121,1.212,1.2119,0,0,1.2432,1.2386,1.239,1.2378,1.2347,1.2343,1.2344,1.2328,1.2324,1.2307,1.2306,1.2294,1.2273,1.2262,1.2238,1.2242,1.2274,1.2218,1.2217,1.2228,1.2293,1.2309,1.2315,1.2257,1.2257,1.2258,1.2294,0,1.2476,1.2475,1.2443,1.2451,1.2446,1.2406,1.2406,1.2387,1.2366,1.2358,1.2335,1.2327,1.23,1.2292,1.2294,1.227,1.2286,1.2267,1.2254,1.2254,1.2261,1.2321,1.2339,1.2374,1.2298,1.2299,1.2299,0,1.2527,1.2512,1.252,1.2486,1.2483,1.2485,1.2466,1.2459,1.2436,1.242,1.2407,1.2379,1.2376,1.2349,1.2344,1.2331,1.2324,1.2311,1.2311,1.2308,1.2279,1.2319,1.2385,1.239,1.2306,1.2305,1.2305,0,1.2587,1.2569,1.257,1.2561,1.2523,1.2524,1.2509,1.2484,1.2475,1.2459,1.2452,1.2436,1.2427,1.2414,1.2382,1.2365,1.238,1.235,1.2366,1.2366,1.237,1.2371,1.2435,1.2367,1.2367,1.2367,1.2367,0,1.2639,1.2645,1.2597,1.2598,1.2602,1.2565,1.2571,1.2551,1.2529,1.2524,1.2488,1.2484,1.2442,1.2434,1.2408,1.2407,1.2403,1.2389,1.2383,1.2392,1.2394,1.2387,1.2383,1.2369,1.2368,1.2368,1.2368,0,1.2707,1.2675,1.2674,1.2638,1.2628,1.2633,1.2602,1.26,1.2576,1.2571,1.2567,1.253,1.2517,1.2484,1.2463,1.2446,1.2451,1.2439,1.2459,1.2454,1.2471,1.2469,1.2533,1.2538,1.2468,1.2469,1.247,0,1.2742,1.2746,1.2709,1.2703,1.2689,1.268,1.2671,1.2634,1.2625,1.2597,1.2599,1.2584,1.2569,1.2551,1.2521,1.2504,1.2491,1.2514,1.2488,1.2497,1.249,1.2489,1.2489,1.252,1.2521,1.2522,1.2522,0,1.2807,1.2791,1.2779,1.2761,1.2751,1.2735,1.2717,1.2714,1.2672,1.2664,1.2651,1.264,1.2617,1.2602,1.258,1.2562,1.2535,1.253,1.2533,1.2543,1.2554,1.2546,1.2473,1.2529,1.2529,1.2528,1.2528,1.2527,1.2859,1.2859,1.2833,1.282,1.2803,1.2786,1.2783,1.2758,1.2746,1.2725,1.2703,1.2692,1.2666,1.2633,1.2617,1.2607,1.2593,1.2597,1.2597,1.2599,1.2602,1.2556,1.2603,1.2603,1.2602,1.2602,1.2602,0,1.2921,1.2901,1.289,1.2866,1.2855,1.283,1.2808,1.2801,1.2791,1.277,1.2756,1.2739,1.2723,1.2692,1.2673,1.267,1.2657,1.2666,1.2666,1.2662,1.2617,1.2616,1.2677,1.2677,1.2677,1.2677,1.2677,1.2677,1.2952,1.295,1.293,1.2919,1.2899,1.2888,1.2877,1.2861,1.2843,1.2827,1.2813,1.2792,1.2766,1.2744,1.2728,1.2719,1.2713,1.2726,1.2713,1.2672,1.2665,1.2658,1.2657,1.2726,1.2726,1.2758,1.2759,1.2759]}]]